Starlink 4341

operational
NORAD ID: 53052 Int'l Des: 2022-077 Owner: SPXS Country: US Constellation: starlink
LEOCIRCULARRETROGRADESSO

Über Starlink 4341

Beschreibung wird geladen...

Live-Position

3D-Globus wird geladen...

Nächste Überflüge

Höhenverlauf

Altitude vs Time

uPlot chart will show altitude changes over time

Zweizeiliger Elementsatz

1 53052U 22077K 25304.05949296 -.00000141 00000-0 -64769-5 0 9996
2 53052 97.6048 123.3033 0000557 78.1270 282.0017 15.01257389181469
Epoch: 31. Okt. 2025 • Age: 19 hours

Aktueller Status

Höhe 579.9 km
Geschwindigkeit 7.57 km/s
Subsatellitenpunkt -43.33°S, 144.44°E
Startdatum 11. Juli 2022
Alter 3.3 years
Typ internet

Technische Details

Klassifizierung Payload
Masse 297.00 kg
Trockenmasse 275.00 kg
Gesamtmasse 297.00 kg
Länge 0.20 m
Durchmesser 2.80 m
Spannweite 9.00 m
Form Box + pan
Hersteller SPXS
Bus-Typ Starlink
Phasenstatus In Orbit
Besitzer/Staat SPXS/US

Große Konstellationen

Loading constellations...